Location: Macquigny
(49.8857°N, 3.5502°E)
Time: 15:30:32
(UTC+00:00)

Daily predictions for brighter satellites

Satellite Brightness Start Highest point End
(mag) Time Altitude Azimuth Time Altitude Azimuth Time Altitude Azimuth
CENTAUR R/B 4.1 20:37:21 10° ESE 20:39:09 11° E 20:41:03 10° E
Cosmos 1862 Rocket 3.7 20:36:37 10° S 20:41:02 84° W 20:45:32 10° N
Cosmos 1703 Rocket 4.4 20:37:22 10° SSE 20:41:23 35° E 20:45:25 10° NNE
Cosmos 1356 Rocket 4.2 20:37:18 10° SSW 20:41:26 56° WNW 20:45:34 10° N
Okean O Rocket 3.7 20:40:44 10° SSW 20:44:20 25° W 20:47:55 10° NW
USA 245 4.0 20:41:34 10° SSE 20:46:01 86° ENE 20:51:34 10° NNW
Cosmos 2208 Rocket 4.1 20:40:59 10° NNW 20:46:10 67° ENE 20:51:19 10° SSE
Cosmos 371 Rocket 4.4 20:44:03 10° SSE 20:47:59 26° E 20:51:57 10° NE
Ariane Rocket 3.1 20:45:13 10° SSE 20:50:17 71° ENE 20:55:22 10° N
Cosmos 1242 Rocket 2.4 20:47:57 10° SSE 20:50:28 37° E 20:53:01 10° NNE
CZ-4C R/B 2.4 20:46:26 10° S 20:50:32 37° ESE 20:55:34 10° NE
Cosmos 2228 Rocket 4.1 20:46:22 10° SSW 20:50:49 53° WNW 20:55:19 10° N
Meteor 1-4 Rocket 2.4 20:48:25 10° SSW 20:51:24 67° WNW 20:54:26 10° N
Terra 1.9 20:50:46 10° SSE 20:55:29 88° WSW 21:00:14 10° NNW
Iridium 51 4.4 20:56:23 10° S 21:00:35 75° E 21:04:31 10° N
MOS 1 Rocket 3.6 20:55:36 10° SSE 21:00:54 88° ENE 21:06:00 10° NNW
Cosmos 2360 Rocket 4.3 20:58:17 10° NW 21:02:27 21° W 21:06:35 10° SSW
Cosmos 1953 2.3 21:01:23 10° NNW 21:05:13 78° W 21:09:00 10° S
USA 234 4.0 21:01:22 10° ENE 21:06:59 30° SE 21:12:34 10° S
COSMOS 2428 2.9 21:01:27 10° NNW 21:07:08 71° WSW 21:12:49 10° SSE
SPOT 5 4.1 21:07:10 10° SSW 21:11:10 34° W 21:15:21 10° NNW
Cosmos 304 Rocket 4.4 21:10:08 10° S 21:14:28 36° ESE 21:18:49 10° NE
BREEZE-M DEB (TANK) 2.8 21:13:36 10° W 21:16:05 83° S 21:21:49 10° E
USA 281 4.4 21:10:41 10° ESE 21:16:26 34° NE 21:22:13 10° NNW
BlueWalker 3 2.5 21:18:36 10° W 21:22:18 60° NNW 21:26:02 10° ENE
ERS-1 Rocket 4.0 21:22:41 10° SSW 21:27:25 41° W 21:32:11 10° NNW
Cosmos 1315 Rocket 3.9 21:24:18 10° SSW 21:28:08 45° WNW 21:32:00 10° N
SL-4 R/B 3.5 21:26:46 10° W 21:29:48 22° SW 21:32:19 13° S
Cosmos 2084 Rocket 3.4 21:30:00 10° SSW 21:34:14 61° SE 21:38:19 10° NE
Cosmos 773 Rocket 4.0 21:29:29 10° NNW 21:34:42 86° ENE 21:39:00 15° SSE
Cosmos 1408 2.3 21:32:50 17° SSE 21:34:55 50° E 21:37:51 10° NNE
Cosmos 1908 Rocket 4.4 21:31:05 10° NNW 21:35:15 47° W 21:39:23 10° SSW
BREEZE-M DEB (TANK) 4.2 21:34:13 10° W 21:38:52 87° S 21:59:34 10° E
Cosmos 1782 Rocket 3.6 21:35:05 10° NNW 21:39:26 80° W 21:43:07 14° S
Cosmos 2242 Rocket 3.9 21:35:52 14° SSE 21:39:37 52° E 21:44:03 10° NNE
BREEZE-M DEB (TANK) 4.0 21:39:14 10° WSW 21:40:57 17° SSW 21:41:58 15° S
Cosmos 1300 Rocket 3.5 21:38:44 10° N 21:43:04 87° W 21:46:34 16° S
Cosmos 1709 Rocket 4.3 21:38:03 13° SSE 21:43:40 56° E 21:49:49 10° NNE
SL-16 R/B 3.2 21:39:27 10° NNW 21:44:47 39° NE 21:50:00 10° ESE
Cosmos 2237 Rocket 2.2 21:40:05 10° NNW 21:45:47 84° WSW 21:50:16 17° SSE
NOSS 3-2 (A) 4.4 21:48:36 17° SE 21:51:00 22° ESE 21:55:25 10° ENE
Cosmos 2227 Rocket 2.8 21:47:45 15° S 21:51:59 38° ESE 21:57:12 10° NE
SJ 16-02 4.3 21:55:13 10° W 21:58:02 17° NW 22:00:51 10° N
Cosmos 1455 4.3 21:56:13 10° NW 21:58:47 19° W 22:01:21 10° SW
H-2A R/B 3.8 21:56:06 14° ESE 21:59:00 30° ENE 22:02:41 10° N
Cosmos 1980 4.0 21:54:50 10° NW 22:00:27 63° WSW 22:04:42 18° S
EXPRESS MD2 2.6 21:59:10 10° W 22:01:22 34° SSW 22:01:35 33° S
GP-B 3.2 21:58:48 10° N 22:03:14 75° W 22:06:49 15° S
Landsat 5 3.8 21:59:34 10° N 22:03:42 67° WNW 22:07:56 10° SSW
Meteor 2-5 Rocket 3.9 21:59:20 16° S 22:03:58 60° E 22:09:38 10° NNE
Cosmos 1378 Rocket 4.4 22:02:31 20° SE 22:04:56 34° E 22:08:56 10° NNE
Cosmos 1777 Rocket 4.0 22:01:00 11° SSW 22:06:02 71° ESE 22:11:19 10° NNE
ARIANE 5 R/B 2.8 22:03:45 20° SSE 22:06:38 64° ENE 22:10:59 10° N
SeaSat 1 3.4 22:04:02 15° S 22:07:43 37° WSW 22:12:17 10° NW
Cosmos 1825 3.5 22:06:41 18° ESE 22:07:50 22° E 22:10:32 10° NE
COSMOS 2455 3.3 22:02:12 10° SW 22:08:12 65° NW 22:14:14 10° NNE
Cosmos 2297 Rocket 2.2 22:05:05 10° SSW 22:10:44 89° WNW 22:16:26 10° NNE
Cosmos 1703 3.0 22:10:39 20° S 22:13:05 87° E 22:16:47 10° N
Cosmos 1503 Rocket 4.1 22:12:24 10° SSW 22:17:44 81° WNW 22:23:02 10° NNE
Cosmos 1538 Rocket 4.4 22:14:00 10° NNW 22:19:10 57° ENE 22:22:52 19° SE
SL-23 DEB 4.5 22:22:31 10° SW 22:26:31 60° SSE 22:33:24 10° ENE
Cosmos 1461 3.9 22:26:32 23° SE 22:27:06 23° ESE 22:30:14 10° ENE
Cosmos 2219 3.8 22:23:58 21° SSE 22:27:08 40° ESE 22:32:20 10° NE
CENTAUR R/B 2.5 22:22:27 10° SSW 22:27:57 62° ESE 22:34:55 10° NE
Cosmos 371 Rocket 4.3 22:23:25 10° SW 22:28:02 47° WNW 22:32:44 10° NNE
Cosmos 1818 3.9 22:22:56 10° NW 22:28:24 62° NE 22:32:53 15° SE
Cosmos 2263 Rocket 3.1 22:27:07 21° SSE 22:29:42 30° ESE 22:34:30 10° NE
Cosmos 2151 Rocket 3.5 22:26:56 10° N 22:31:20 77° ENE 22:33:48 26° SSE
Cosmos 1892 2.9 22:31:14 30° SSE 22:32:35 48° E 22:36:01 10° NNE
Terra 4.3 22:31:52 10° WSW 22:33:47 12° W 22:35:44 10° WNW
Okean 2 Rocket 3.1 22:31:16 10° N 22:35:47 78° E 22:38:18 26° SSE
Meteor 1-24 Rocket 3.8 22:32:42 16° SSW 22:37:21 78° WNW 22:42:52 10° N
Cosmos 1263 4.5 22:35:32 10° N 22:38:35 52° ENE 22:39:31 35° SE
CZ-4C R/B 3.1 22:34:07 10° WSW 22:38:44 47° NW 22:44:37 10° NE
ALOS 2 2.9 22:46:36 25° SE 22:49:01 61° ENE 22:53:22 10° N
Cosmos 405 Rocket 3.6 22:46:34 10° NNW 22:50:08 39° W 22:51:59 23° SSW
Cosmos 1898 Rocket 4.3 22:48:08 23° SSE 22:50:24 34° ESE 22:55:01 10° NE
USA 234 3.2 22:44:01 10° ENE 22:50:36 83° SSE 22:57:09 10° SW
Cosmos 292 Rocket 4.3 22:49:43 26° SSE 22:51:54 44° ESE 22:56:29 10° NE
H-2A R/B 3.8 22:52:47 10° NE 22:55:40 18° E 22:57:02 16° ESE
PSLV R/B 4.0 22:51:59 10° N 22:55:57 72° WNW 22:58:16 24° SSW
USA 281 3.3 22:56:14 23° SSE 23:00:34 68° WSW 23:07:10 10° NNW
BlueWalker 3 2.7 22:57:09 10° WNW 23:00:49 52° N 23:04:29 10° E
MINOTAUR 4 R/B 4.0 22:58:12 10° N 23:01:02 54° WNW 23:02:07 31° SW
Cosmos 2074 Rocket 4.0 22:58:51 23° S 23:02:52 76° E 23:09:06 10° NNE
Cosmos 2181 Rocket 4.2 22:59:12 10° NNW 23:05:15 61° W 23:09:14 22° SSW
Aureole 1 Rocket 3.3 23:05:07 31° S 23:06:57 57° ESE 23:12:03 10° NNE
Cosmos 990 Rocket 3.9 23:04:48 21° SSW 23:08:20 87° WNW 23:13:30 10° NNE
TIMED 4.5 23:08:03 30° S 23:10:03 66° ESE 23:14:22 10° NNE
Cosmos 2221 Rocket 3.7 23:07:37 25° SSW 23:10:09 71° W 23:14:34 10° N
Cosmos 1328 3.7 23:09:17 34° S 23:10:52 75° E 23:14:44 10° NNE
Okean 1 Rocket 3.1 23:07:36 10° NNW 23:11:59 71° W 23:14:06 30° S
Sich 1 Rocket 4.3 23:10:49 10° NNW 23:14:59 43° W 23:17:10 24° SSW
Cosmos 1295 Rocket 4.4 23:12:40 24° S 23:16:31 83° E 23:22:44 10° N
Meteor 1-21 Rocket 4.3 23:21:20 26° S 23:24:32 66° E 23:30:06 10° NNE
Cosmos 1680 Rocket 3.7 23:19:43 10° NNW 23:24:55 66° ENE 23:28:15 22° SE
Cosmos 1025 Rocket 2.9 23:23:54 32° S 23:25:51 81° E 23:30:09 10° NNE
Cosmos 2237 Rocket 4.3 23:25:53 10° WNW 23:28:56 15° W 23:31:59 10° SW
SL-16 R/B 2.8 23:23:36 10° NW 23:28:59 45° WSW 23:31:50 25° SSW
Cosmos 372 Rocket 4.1 23:26:39 28° S 23:29:17 60° ESE 23:34:25 10° NNE
Cosmos 2112 Rocket 4.3 23:26:06 10° NNW 23:31:16 64° ENE 23:34:41 21° SE
Cosmos 1975 Rocket 3.5 23:31:37 30° SSE 23:33:30 51° E 23:37:48 10° NNE
H-2A R/B 3.6 23:32:04 23° SW 23:33:53 32° W 23:37:39 10° NNW
Cosmos 1606 3.7 23:30:49 10° N 23:34:08 34° ENE 23:35:43 23° ESE
Cosmos 1943 3.3 23:28:56 10° NNW 23:34:35 76° ENE 23:38:26 21° SE
Cosmos 1603 4.4 23:29:04 10° NNW 23:34:42 53° NE 23:39:41 13° SE
Cosmos 2227 Rocket 3.2 23:30:36 10° WSW 23:36:00 43° NW 23:41:25 10° NNE
Nadezhda 3 Rocket 4.1 23:33:32 10° NNW 23:39:45 70° W 23:43:26 25° S
Cosmos 2082 3.6 23:36:07 22° SSW 23:39:49 90° ESE 23:45:28 10° NNE
Cosmos 1455 Rocket 3.0 23:35:41 10° NNW 23:40:09 83° W 23:42:11 32° S
NOSS 3-2 (A) 3.4 23:35:54 12° SW 23:40:55 76° NW 23:47:21 10° NE
Cosmos 1825 3.6 23:40:07 17° WSW 23:41:53 26° WNW 23:44:50 10° NNW
BREEZE-M DEB (TANK) 3.4 23:41:14 10° W 23:44:01 84° S 23:51:02 10° E
Meteor 2-1 Rocket 4.4 23:40:06 10° N 23:46:00 75° ENE 23:49:33 24° SSE
NOSS 3-2 (C) 3.2 23:49:29 25° SSW 23:52:41 70° SE 23:58:57 10° NE
Cosmos 2228 4.0 23:49:20 10° N 23:53:24 40° ENE 23:55:54 20° SE
Cosmos 2297 Rocket 4.4 23:51:11 10° W 23:55:34 22° NW 23:59:58 10° NNE
